contact: severine.martini@mio.osupytheas.fr, dominique.lefevre@mio.osupytheas.fr
Project:EMSO Ligure-ouest http://www.emso-fr.org/EMSO-France
Sensor Optode, line 4330 Serial 272 
DOI : "https://doi.org/10.17882/97948" 
Title:EMSO Ligure Ouest : Data BathyDock capteur Optode - deploiement "2023-04-28"
Datetime,Profondeur,Latitude,Longitude,optode_type,serial,O2_concentration,O2_saturation,Temperature,Calibrated_Phase,Temp_Compensated_Phase,phase_blue_light,phase_red_light,Amplitude_blue_light,Amplitude_red_light,thermistor_bridge
time,m,degree_north,degree_east,1,1,umol.l-1,%,degree_C,degree,degree,degree,degree,mV,mV,mV
2023-09-22T00:00:08,2420,42.8014,5.9826,4330,272,186.964,57.255,13.304,36.010,36.590,41.181,4.590,295.1,541.9,291.4
2023-09-22T00:03:07,2420,42.8014,5.9826,4330,272,186.927,57.249,13.309,36.010,36.591,41.179,4.588,295.1,542.0,291.3
2023-09-22T00:06:07,2420,42.8014,5.9826,4330,272,187.069,57.293,13.309,36.001,36.581,41.173,4.592,295.1,542.0,291.3
2023-09-22T00:09:07,2420,42.8014,5.9826,4330,272,186.871,57.230,13.308,36.015,36.595,41.186,4.591,295.1,542.0,291.3
2023-09-22T00:12:07,2420,42.8014,5.9826,4330,272,186.704,57.181,13.309,36.024,36.604,41.195,4.591,295.2,541.9,291.3
2023-09-22T00:15:07,2420,42.8014,5.9826,4330,272,187.031,57.276,13.305,36.005,36.585,41.173,4.588,295.2,541.9,291.4
2023-09-22T00:18:07,2420,42.8014,5.9826,4330,272,186.974,57.260,13.306,36.008,36.588,41.182,4.593,295.2,541.9,291.4
2023-09-22T00:21:07,2420,42.8014,5.9826,4330,272,186.898,57.237,13.306,36.013,36.593,41.184,4.591,295.1,542.0,291.4
2023-09-22T00:24:08,2420,42.8014,5.9826,4330,272,186.805,57.208,13.306,36.019,36.599,41.189,4.590,295.1,542.0,291.3
2023-09-22T00:27:08,2420,42.8014,5.9826,4330,272,186.914,57.241,13.306,36.013,36.593,41.184,4.591,295.1,542.0,291.4
2023-09-22T00:30:08,2420,42.8014,5.9826,4330,272,186.920,57.246,13.308,36.011,36.591,41.185,4.594,295.1,542.0,291.3
2023-09-22T00:33:07,2420,42.8014,5.9826,4330,272,187.052,57.287,13.308,36.002,36.583,41.170,4.587,295.2,542.0,291.3
2023-09-22T00:36:07,2420,42.8014,5.9826,4330,272,186.811,57.210,13.306,36.019,36.599,41.188,4.589,295.2,541.9,291.3
2023-09-22T00:39:07,2420,42.8014,5.9826,4330,272,186.900,57.245,13.312,36.010,36.590,41.181,4.591,295.2,542.0,291.2
2023-09-22T00:42:07,2420,42.8014,5.9826,4330,272,186.875,57.233,13.309,36.014,36.594,41.190,4.597,295.2,542.0,291.3
2023-09-22T00:45:07,2420,42.8014,5.9826,4330,272,186.982,57.261,13.305,36.009,36.589,41.178,4.590,295.2,542.0,291.4
2023-09-22T00:48:07,2420,42.8014,5.9826,4330,272,186.943,57.251,13.306,36.010,36.590,41.180,4.590,295.1,542.0,291.3
2023-09-22T00:51:07,2420,42.8014,5.9826,4330,272,186.949,57.251,13.305,36.010,36.591,41.181,4.590,295.2,542.0,291.4
2023-09-22T00:54:07,2420,42.8014,5.9826,4330,272,186.875,57.230,13.307,36.014,36.595,41.186,4.592,295.2,542.0,291.3
2023-09-22T00:57:07,2420,42.8014,5.9826,4330,272,186.752,57.192,13.306,36.022,36.603,41.194,4.591,295.2,542.0,291.4
2023-09-22T01:00:08,2420,42.8014,5.9826,4330,272,186.928,57.253,13.312,36.008,36.589,41.183,4.594,295.2,541.9,291.2
2023-09-22T01:03:07,2420,42.8014,5.9826,4330,272,186.862,57.229,13.309,36.014,36.595,41.185,4.590,295.2,541.9,291.3
2023-09-22T01:06:07,2420,42.8014,5.9826,4330,272,187.042,57.281,13.306,36.003,36.584,41.172,4.589,295.1,542.0,291.3
2023-09-22T01:09:07,2420,42.8014,5.9826,4330,272,186.909,57.240,13.306,36.013,36.593,41.180,4.587,295.1,542.0,291.4
2023-09-22T01:12:07,2420,42.8014,5.9826,4330,272,186.996,57.267,13.306,36.006,36.587,41.178,4.591,295.2,541.9,291.3
2023-09-22T01:15:07,2420,42.8014,5.9826,4330,272,186.778,57.203,13.308,36.020,36.600,41.189,4.589,295.2,542.0,291.3
2023-09-22T01:18:07,2420,42.8014,5.9826,4330,272,186.739,57.190,13.308,36.023,36.603,41.192,4.589,295.1,542.0,291.3
2023-09-22T01:21:07,2420,42.8014,5.9826,4330,272,186.897,57.235,13.305,36.014,36.594,41.187,4.593,295.2,541.9,291.4
2023-09-22T01:24:08,2420,42.8014,5.9826,4330,272,186.877,57.229,13.305,36.015,36.595,41.186,4.591,295.2,542.0,291.4
2023-09-22T01:27:08,2420,42.8014,5.9826,4330,272,186.870,57.230,13.308,36.014,36.594,41.186,4.592,295.2,541.9,291.3
2023-09-22T01:30:08,2420,42.8014,5.9826,4330,272,186.834,57.214,13.303,36.019,36.599,41.188,4.589,295.2,542.0,291.4
2023-09-22T01:33:07,2420,42.8014,5.9826,4330,272,186.934,57.248,13.306,36.011,36.591,41.185,4.594,295.2,542.0,291.4
2023-09-22T01:36:07,2420,42.8014,5.9826,4330,272,186.580,57.140,13.307,36.033,36.613,41.204,4.591,295.4,542.0,291.3
2023-09-22T01:39:07,2420,42.8014,5.9826,4330,272,187.005,57.271,13.307,36.006,36.586,41.185,4.599,295.3,542.0,291.3
2023-09-22T01:42:07,2420,42.8014,5.9826,4330,272,187.065,57.288,13.306,36.002,36.583,41.172,4.590,295.3,542.0,291.4
2023-09-22T01:45:07,2420,42.8014,5.9826,4330,272,186.785,57.200,13.305,36.021,36.601,41.194,4.593,295.2,542.0,291.4
2023-09-22T01:48:07,2420,42.8014,5.9826,4330,272,186.794,57.206,13.307,36.019,36.599,41.191,4.592,295.1,541.9,291.3
2023-09-22T01:51:07,2420,42.8014,5.9826,4330,272,186.368,57.074,13.306,36.048,36.628,41.222,4.594,295.6,542.0,291.4
2023-09-22T01:54:07,2420,42.8014,5.9826,4330,272,186.451,57.100,13.306,36.042,36.622,41.210,4.588,295.6,542.0,291.3
2023-09-22T01:57:07,2420,42.8014,5.9826,4330,272,186.808,57.209,13.306,36.019,36.599,41.192,4.592,295.3,541.9,291.4
2023-09-22T02:00:08,2420,42.8014,5.9826,4330,272,186.716,57.182,13.307,36.025,36.605,41.195,4.590,295.3,542.0,291.3
2023-09-22T02:03:07,2420,42.8014,5.9826,4330,272,186.692,57.174,13.306,36.027,36.607,41.199,4.592,295.3,542.0,291.3
2023-09-22T02:06:07,2420,42.8014,5.9826,4330,272,186.895,57.233,13.304,36.014,36.594,41.186,4.591,295.3,542.0,291.4
2023-09-22T02:09:07,2420,42.8014,5.9826,4330,272,186.629,57.154,13.306,36.030,36.610,41.204,4.593,295.3,542.0,291.4
2023-09-22T02:12:07,2420,42.8014,5.9826,4330,272,186.656,57.163,13.306,36.029,36.609,41.202,4.593,295.3,542.0,291.4
2023-09-22T02:15:07,2420,42.8014,5.9826,4330,272,186.774,57.197,13.305,36.022,36.602,41.192,4.590,295.2,541.9,291.4
2023-09-22T02:18:07,2420,42.8014,5.9826,4330,272,186.831,57.214,13.305,36.019,36.599,41.186,4.587,295.2,541.9,291.4
2023-09-22T02:21:07,2420,42.8014,5.9826,4330,272,186.642,57.157,13.305,36.030,36.610,41.203,4.593,295.3,542.0,291.4
2023-09-22T02:24:07,2420,42.8014,5.9826,4330,272,186.679,57.170,13.306,36.028,36.608,41.191,4.583,295.3,542.0,291.4
2023-09-22T02:27:08,2420,42.8014,5.9826,4330,272,186.506,57.115,13.305,36.039,36.619,41.211,4.592,295.4,541.9,291.4
2023-09-22T02:30:08,2420,42.8014,5.9826,4330,272,186.921,57.242,13.305,36.012,36.592,41.190,4.598,295.3,542.0,291.4
2023-09-22T02:33:07,2420,42.8014,5.9826,4330,272,186.811,57.209,13.305,36.019,36.599,41.185,4.586,295.2,541.9,291.4
2023-09-22T02:36:07,2420,42.8014,5.9826,4330,272,186.547,57.129,13.305,36.036,36.616,41.207,4.591,295.3,542.0,291.4
2023-09-22T02:39:07,2420,42.8014,5.9826,4330,272,186.676,57.166,13.304,36.028,36.609,41.203,4.594,295.5,541.9,291.4
2023-09-22T02:42:07,2420,42.8014,5.9826,4330,272,184.872,56.614,13.304,36.147,36.726,41.322,4.596,296.4,542.0,291.4
2023-09-22T02:45:07,2420,42.8014,5.9826,4330,272,185.548,56.823,13.306,36.102,36.681,41.271,4.590,296.1,542.0,291.4
2023-09-22T02:48:08,2420,42.8014,5.9826,4330,272,186.182,57.019,13.307,36.060,36.640,41.233,4.593,295.6,541.9,291.3
2023-09-22T02:51:08,2420,42.8014,5.9826,4330,272,186.772,57.200,13.308,36.021,36.601,41.194,4.593,295.4,542.0,291.3
2023-09-22T02:54:08,2420,42.8014,5.9826,4330,272,186.644,57.160,13.307,36.029,36.609,41.198,4.589,295.3,542.0,291.3
2023-09-22T02:57:08,2420,42.8014,5.9826,4330,272,186.881,57.229,13.304,36.016,36.596,41.189,4.593,295.3,542.0,291.4
2023-09-22T03:00:08,2420,42.8014,5.9826,4330,272,186.969,57.254,13.303,36.011,36.591,41.182,4.591,295.2,542.0,291.5
2023-09-22T03:03:07,2420,42.8014,5.9826,4330,272,186.869,57.226,13.304,36.016,36.596,41.189,4.592,295.2,541.9,291.4
2023-09-22T03:06:07,2420,42.8014,5.9826,4330,272,186.845,57.219,13.305,36.017,36.598,41.187,4.590,295.2,542.0,291.4
2023-09-22T03:09:07,2420,42.8014,5.9826,4330,272,187.054,57.282,13.304,36.004,36.584,41.178,4.594,295.3,541.9,291.4
2023-09-22T03:12:07,2420,42.8014,5.9826,4330,272,186.899,57.239,13.308,36.012,36.592,41.186,4.594,295.2,542.0,291.3
2023-09-22T03:15:07,2420,42.8014,5.9826,4330,272,186.710,57.177,13.305,36.026,36.606,41.198,4.592,295.2,542.0,291.4
2023-09-22T03:18:07,2420,42.8014,5.9826,4330,272,186.760,57.192,13.304,36.023,36.603,41.198,4.595,295.2,542.0,291.4
2023-09-22T03:21:07,2420,42.8014,5.9826,4330,272,186.707,57.175,13.304,36.027,36.607,41.199,4.593,295.2,542.0,291.4
2023-09-22T03:24:07,2420,42.8014,5.9826,4330,272,186.945,57.249,13.305,36.011,36.591,41.180,4.589,295.2,542.0,291.4
2023-09-22T03:27:08,2420,42.8014,5.9826,4330,272,186.852,57.224,13.307,36.016,36.596,41.189,4.593,295.2,541.9,291.3
2023-09-22T03:30:08,2420,42.8014,5.9826,4330,272,187.044,57.279,13.304,36.005,36.585,41.177,4.592,295.2,542.0,291.4
2023-09-22T03:33:07,2420,42.8014,5.9826,4330,272,186.633,57.153,13.304,36.032,36.612,41.201,4.590,295.2,542.1,291.4
2023-09-22T03:36:07,2420,42.8014,5.9826,4330,272,186.791,57.201,13.304,36.021,36.601,41.192,4.590,295.2,542.0,291.4
2023-09-22T03:39:07,2420,42.8014,5.9826,4330,272,186.862,57.223,13.304,36.017,36.597,41.187,4.590,295.3,542.0,291.4
2023-09-22T03:42:07,2420,42.8014,5.9826,4330,272,186.616,57.150,13.306,36.032,36.612,41.200,4.588,295.3,542.0,291.4
2023-09-22T03:45:08,2420,42.8014,5.9826,4330,272,186.763,57.195,13.306,36.022,36.602,41.191,4.589,295.2,542.0,291.4
2023-09-22T03:48:08,2420,42.8014,5.9826,4330,272,187.006,57.270,13.307,36.006,36.587,41.181,4.595,295.1,542.0,291.3
2023-09-22T03:51:07,2420,42.8014,5.9826,4330,272,186.990,57.265,13.306,36.007,36.587,41.183,4.596,295.2,542.0,291.4
2023-09-22T03:54:08,2420,42.8014,5.9826,4330,272,186.964,57.261,13.309,36.008,36.588,41.184,4.596,295.2,542.0,291.3
2023-09-22T03:57:08,2420,42.8014,5.9826,4330,272,186.777,57.200,13.306,36.021,36.601,41.191,4.589,295.2,542.0,291.4
2023-09-22T04:00:08,2420,42.8014,5.9826,4330,272,186.960,57.257,13.307,36.008,36.589,41.182,4.593,295.2,541.9,291.3
2023-09-22T04:03:07,2420,42.8014,5.9826,4330,272,186.802,57.204,13.303,36.021,36.601,41.195,4.594,295.2,542.0,291.4
2023-09-22T04:06:07,2420,42.8014,5.9826,4330,272,186.666,57.165,13.306,36.028,36.608,41.204,4.595,295.2,542.0,291.4
2023-09-22T04:09:07,2420,42.8014,5.9826,4330,272,186.837,57.217,13.305,36.017,36.597,41.187,4.590,295.2,542.0,291.4
2023-09-22T04:12:07,2420,42.8014,5.9826,4330,272,186.716,57.179,13.305,36.026,36.606,41.196,4.590,295.3,542.0,291.4
2023-09-22T04:15:07,2420,42.8014,5.9826,4330,272,186.762,57.193,13.305,36.023,36.603,41.193,4.590,295.2,542.0,291.4
2023-09-22T04:18:07,2420,42.8014,5.9826,4330,272,186.768,57.196,13.305,36.022,36.602,41.192,4.590,295.2,542.0,291.4
2023-09-22T04:21:07,2420,42.8014,5.9826,4330,272,187.041,57.279,13.305,36.005,36.585,41.173,4.588,295.2,542.0,291.4
2023-09-22T04:24:07,2420,42.8014,5.9826,4330,272,186.772,57.197,13.305,36.021,36.602,41.192,4.590,295.3,542.0,291.4
2023-09-22T04:27:08,2420,42.8014,5.9826,4330,272,186.968,57.256,13.304,36.010,36.590,41.181,4.591,295.1,542.0,291.4
2023-09-22T04:30:08,2420,42.8014,5.9826,4330,272,186.714,57.178,13.304,36.026,36.606,41.201,4.595,295.2,542.0,291.4
2023-09-22T04:33:07,2420,42.8014,5.9826,4330,272,186.768,57.196,13.305,36.022,36.602,41.194,4.592,295.2,542.0,291.4
2023-09-22T04:36:07,2420,42.8014,5.9826,4330,272,187.092,57.295,13.305,36.001,36.582,41.175,4.593,295.2,542.0,291.4
2023-09-22T04:39:07,2420,42.8014,5.9826,4330,272,186.790,57.204,13.306,36.020,36.600,41.193,4.593,295.2,542.0,291.3
2023-09-22T04:42:07,2420,42.8014,5.9826,4330,272,186.742,57.186,13.304,36.024,36.604,41.199,4.594,295.2,542.0,291.4
2023-09-22T04:45:07,2420,42.8014,5.9826,4330,272,186.887,57.236,13.308,36.013,36.593,41.189,4.596,295.1,542.0,291.3
2023-09-22T04:48:07,2420,42.8014,5.9826,4330,272,186.839,57.221,13.308,36.016,36.596,41.188,4.592,295.2,542.0,291.3
2023-09-22T04:51:07,2420,42.8014,5.9826,4330,272,186.855,57.219,13.303,36.017,36.597,41.190,4.593,295.1,541.9,291.5
2023-09-22T04:54:07,2420,42.8014,5.9826,4330,272,186.798,57.205,13.305,36.020,36.600,41.188,4.588,295.2,542.0,291.4
2023-09-22T04:57:08,2420,42.8014,5.9826,4330,272,187.030,57.273,13.303,36.006,36.586,41.175,4.588,295.2,542.0,291.5
2023-09-22T05:00:08,2420,42.8014,5.9826,4330,272,186.884,57.228,13.303,36.016,36.596,41.190,4.594,295.2,541.9,291.5
2023-09-22T05:03:07,2420,42.8014,5.9826,4330,272,186.964,57.260,13.308,36.008,36.588,41.180,4.592,295.2,541.9,291.3
2023-09-22T05:06:07,2420,42.8014,5.9826,4330,272,186.914,57.237,13.303,36.014,36.594,41.183,4.589,295.2,542.0,291.5
2023-09-22T05:09:07,2420,42.8014,5.9826,4330,272,186.887,57.233,13.306,36.014,36.595,41.192,4.598,295.1,541.9,291.4
2023-09-22T05:12:07,2420,42.8014,5.9826,4330,272,186.993,57.265,13.305,36.007,36.588,41.180,4.593,295.2,542.0,291.4
2023-09-22T05:15:07,2420,42.8014,5.9826,4330,272,186.723,57.180,13.304,36.026,36.606,41.196,4.590,295.2,542.0,291.4
2023-09-22T05:18:07,2420,42.8014,5.9826,4330,272,186.760,57.193,13.305,36.023,36.603,41.194,4.591,295.2,542.0,291.4
2023-09-22T05:21:08,2420,42.8014,5.9826,4330,272,186.946,57.245,13.301,36.012,36.593,41.188,4.596,295.3,542.0,291.5
2023-09-22T05:24:08,2420,42.8014,5.9826,4330,272,186.826,57.211,13.303,36.019,36.599,41.188,4.589,295.2,542.0,291.4
2023-09-22T05:27:08,2420,42.8014,5.9826,4330,272,187.186,57.320,13.302,35.996,36.576,41.171,4.594,295.2,542.0,291.5
2023-09-22T05:30:08,2420,42.8014,5.9826,4330,272,187.096,57.292,13.302,36.002,36.583,41.174,4.592,295.2,542.1,291.5
2023-09-22T05:33:07,2420,42.8014,5.9826,4330,272,186.960,57.255,13.305,36.010,36.590,41.183,4.593,295.2,542.0,291.4
2023-09-22T05:36:07,2420,42.8014,5.9826,4330,272,187.042,57.275,13.302,36.006,36.587,41.180,4.594,295.2,542.0,291.5
2023-09-22T05:39:07,2420,42.8014,5.9826,4330,272,186.877,57.225,13.302,36.017,36.597,41.189,4.592,295.2,542.0,291.5
2023-09-22T05:42:07,2420,42.8014,5.9826,4330,272,187.031,57.273,13.303,36.006,36.586,41.179,4.593,295.1,542.1,291.5
2023-09-22T05:45:08,2420,42.8014,5.9826,4330,272,187.004,57.266,13.303,36.007,36.588,41.177,4.589,295.1,542.0,291.4
2023-09-22T05:48:08,2420,42.8014,5.9826,4330,272,187.003,57.267,13.305,36.007,36.588,41.183,4.596,295.1,542.0,291.4
2023-09-22T05:51:08,2420,42.8014,5.9826,4330,272,187.114,57.298,13.303,36.001,36.581,41.173,4.592,295.1,542.0,291.5
2023-09-22T05:54:08,2420,42.8014,5.9826,4330,272,186.961,57.252,13.303,36.011,36.591,41.181,4.590,295.1,542.0,291.5
2023-09-22T05:57:07,2420,42.8014,5.9826,4330,272,186.921,57.238,13.302,36.014,36.594,41.184,4.589,295.2,542.0,291.5
2023-09-22T06:00:07,2420,42.8014,5.9826,4330,272,187.194,57.322,13.302,35.996,36.576,41.170,4.594,295.2,542.0,291.5
2023-09-22T06:03:08,2420,42.8014,5.9826,4330,272,187.019,57.268,13.301,36.008,36.588,41.182,4.593,295.1,542.0,291.5
2023-09-22T06:06:08,2420,42.8014,5.9826,4330,272,186.963,57.250,13.301,36.012,36.592,41.184,4.592,295.1,542.0,291.5
2023-09-22T06:09:08,2420,42.8014,5.9826,4330,272,186.897,57.230,13.301,36.016,36.596,41.192,4.596,295.1,542.0,291.5
2023-09-22T06:12:08,2420,42.8014,5.9826,4330,272,186.932,57.243,13.303,36.013,36.593,41.185,4.592,295.1,542.0,291.5
2023-09-22T06:15:07,2420,42.8014,5.9826,4330,272,187.032,57.274,13.303,36.006,36.586,41.179,4.593,295.1,542.0,291.5
2023-09-22T06:18:07,2420,42.8014,5.9826,4330,272,186.921,57.238,13.301,36.015,36.595,41.187,4.592,295.1,542.0,291.5
2023-09-22T06:21:07,2420,42.8014,5.9826,4330,272,187.024,57.269,13.301,36.007,36.588,41.182,4.594,295.1,542.0,291.5
2023-09-22T06:24:07,2420,42.8014,5.9826,4330,272,187.052,57.278,13.302,36.005,36.585,41.177,4.592,295.1,542.0,291.5
2023-09-22T06:27:07,2420,42.8014,5.9826,4330,272,187.091,57.289,13.301,36.003,36.584,41.172,4.588,295.1,542.0,291.5
2023-09-22T06:30:07,2420,42.8014,5.9826,4330,272,187.257,57.341,13.302,35.992,36.573,41.164,4.592,295.1,542.0,291.5
2023-09-22T06:33:07,2420,42.8014,5.9826,4330,272,186.911,57.237,13.303,36.014,36.594,41.182,4.589,295.1,542.0,291.4
2023-09-22T06:36:07,2420,42.8014,5.9826,4330,272,187.098,57.291,13.300,36.003,36.583,41.173,4.590,295.1,542.0,291.5
2023-09-22T06:39:07,2420,42.8014,5.9826,4330,272,187.071,57.285,13.302,36.004,36.584,41.177,4.593,295.1,542.0,291.5
2023-09-22T06:42:07,2420,42.8014,5.9826,4330,272,187.093,57.290,13.301,36.003,36.583,41.175,4.592,295.1,542.0,291.5
2023-09-22T06:45:07,2420,42.8014,5.9826,4330,272,187.076,57.287,13.303,36.004,36.584,41.174,4.590,295.1,541.9,291.5
2023-09-22T06:48:07,2420,42.8014,5.9826,4330,272,186.944,57.245,13.302,36.012,36.593,41.185,4.592,295.1,542.0,291.5
2023-09-22T06:51:08,2420,42.8014,5.9826,4330,272,186.918,57.240,13.304,36.013,36.593,41.180,4.587,295.1,542.0,291.4
2023-09-22T06:54:08,2420,42.8014,5.9826,4330,272,187.090,57.288,13.300,36.003,36.584,41.177,4.594,295.1,542.0,291.5
2023-09-22T06:57:08,2420,42.8014,5.9826,4330,272,186.813,57.208,13.304,36.020,36.600,41.189,4.589,295.1,542.0,291.4
2023-09-22T07:00:08,2420,42.8014,5.9826,4330,272,187.254,57.341,13.303,35.992,36.572,41.169,4.597,295.1,542.0,291.5
2023-09-22T07:03:07,2420,42.8014,5.9826,4330,272,186.997,57.261,13.302,36.009,36.589,41.179,4.590,295.1,542.1,291.5
2023-09-22T07:06:07,2420,42.8014,5.9826,4330,272,186.925,57.240,13.302,36.013,36.594,41.187,4.594,295.1,542.0,291.5
2023-09-22T07:09:07,2420,42.8014,5.9826,4330,272,186.956,57.247,13.300,36.012,36.592,41.188,4.595,295.1,542.0,291.6
2023-09-22T07:12:07,2420,42.8014,5.9826,4330,272,187.328,57.362,13.301,35.988,36.568,41.160,4.592,295.1,542.0,291.5
2023-09-22T07:15:07,2420,42.8014,5.9826,4330,272,187.178,57.316,13.301,35.997,36.577,41.171,4.594,295.1,542.1,291.5
2023-09-22T07:18:07,2420,42.8014,5.9826,4330,272,187.322,57.359,13.300,35.988,36.568,41.157,4.588,295.1,542.0,291.5
2023-09-22T07:21:08,2420,42.8014,5.9826,4330,272,187.136,57.302,13.300,36.001,36.582,41.173,4.591,295.0,542.1,291.6
2023-09-22T07:24:08,2420,42.8014,5.9826,4330,272,186.960,57.248,13.300,36.012,36.592,41.183,4.591,295.1,542.0,291.5
2023-09-22T07:27:08,2420,42.8014,5.9826,4330,272,187.262,57.341,13.301,35.992,36.573,41.167,4.595,295.1,542.1,291.5
2023-09-22T07:30:08,2420,42.8014,5.9826,4330,272,187.055,57.278,13.301,36.006,36.586,41.182,4.596,295.0,542.1,291.5
2023-09-22T07:33:07,2420,42.8014,5.9826,4330,272,186.858,57.219,13.302,36.018,36.598,41.186,4.588,295.1,542.1,291.5
2023-09-22T07:36:07,2420,42.8014,5.9826,4330,272,187.124,57.302,13.303,36.000,36.581,41.168,4.587,295.1,542.1,291.5
2023-09-22T07:39:07,2420,42.8014,5.9826,4330,272,187.076,57.283,13.300,36.005,36.585,41.174,4.590,295.1,542.0,291.6
2023-09-22T07:42:07,2420,42.8014,5.9826,4330,272,187.222,57.328,13.300,35.995,36.576,41.167,4.591,295.0,542.0,291.6
2023-09-22T07:45:07,2420,42.8014,5.9826,4330,272,187.082,57.285,13.299,36.005,36.585,41.176,4.591,295.1,542.0,291.6
2023-09-22T07:48:07,2420,42.8014,5.9826,4330,272,187.080,57.285,13.300,36.004,36.585,41.181,4.596,295.0,542.0,291.5
2023-09-22T07:51:07,2420,42.8014,5.9826,4330,272,186.889,57.226,13.300,36.017,36.597,41.192,4.595,295.0,542.0,291.6
2023-09-22T07:54:07,2420,42.8014,5.9826,4330,272,187.190,57.320,13.301,35.997,36.577,41.170,4.593,295.0,542.1,291.5
2023-09-22T07:57:07,2420,42.8014,5.9826,4330,272,186.918,57.236,13.301,36.015,36.595,41.184,4.589,295.1,542.1,291.5
2023-09-22T08:00:08,2420,42.8014,5.9826,4330,272,187.118,57.298,13.302,36.001,36.581,41.173,4.592,295.0,542.1,291.5
2023-09-22T08:03:07,2420,42.8014,5.9826,4330,272,187.089,57.289,13.301,36.003,36.583,41.168,4.585,295.1,542.0,291.5
2023-09-22T08:06:07,2420,42.8014,5.9826,4330,272,187.252,57.338,13.300,35.993,36.574,41.170,4.597,295.0,542.0,291.5
2023-09-22T08:09:07,2420,42.8014,5.9826,4330,272,186.970,57.252,13.301,36.011,36.591,41.186,4.594,295.1,542.0,291.5
2023-09-22T08:12:07,2420,42.8014,5.9826,4330,272,187.260,57.344,13.303,35.991,36.571,41.166,4.595,295.0,542.0,291.4
2023-09-22T08:15:07,2420,42.8014,5.9826,4330,272,187.066,57.281,13.301,36.005,36.585,41.179,4.594,295.0,542.1,291.5
2023-09-22T08:18:08,2420,42.8014,5.9826,4330,272,187.152,57.308,13.301,35.999,36.579,41.172,4.592,295.0,542.0,291.5
2023-09-22T08:21:08,2420,42.8014,5.9826,4330,272,186.948,57.246,13.301,36.013,36.593,41.186,4.593,295.0,542.0,291.5
2023-09-22T08:24:08,2420,42.8014,5.9826,4330,272,187.331,57.365,13.303,35.987,36.567,41.162,4.595,295.0,542.0,291.5
2023-09-22T08:27:08,2420,42.8014,5.9826,4330,272,187.155,57.310,13.302,35.998,36.579,41.171,4.592,295.0,542.0,291.5
2023-09-22T08:30:07,2420,42.8014,5.9826,4330,272,187.293,57.352,13.302,35.990,36.570,41.163,4.593,295.1,542.1,291.5
2023-09-22T08:33:07,2420,42.8014,5.9826,4330,272,186.901,57.234,13.303,36.014,36.595,41.186,4.591,295.1,542.0,291.4
2023-09-22T08:36:07,2420,42.8014,5.9826,4330,272,187.016,57.267,13.301,36.008,36.588,41.178,4.590,295.0,542.1,291.5
2023-09-22T08:39:07,2420,42.8014,5.9826,4330,272,187.064,57.281,13.301,36.005,36.585,41.174,4.589,295.1,542.0,291.5
2023-09-22T08:42:07,2420,42.8014,5.9826,4330,272,187.211,57.325,13.300,35.995,36.576,41.173,4.597,295.0,542.1,291.5
2023-09-22T08:45:07,2420,42.8014,5.9826,4330,272,187.345,57.365,13.299,35.987,36.568,41.160,4.592,295.1,542.1,291.6
2023-09-22T08:48:08,2420,42.8014,5.9826,4330,272,187.131,57.301,13.301,36.001,36.581,41.172,4.590,295.1,542.1,291.5
2023-09-22T08:51:08,2420,42.8014,5.9826,4330,272,187.211,57.326,13.301,35.995,36.575,41.168,4.592,295.0,542.0,291.5
2023-09-22T08:54:08,2420,42.8014,5.9826,4330,272,187.134,57.306,13.304,35.999,36.579,41.168,4.589,295.0,542.0,291.4
2023-09-22T08:57:08,2420,42.8014,5.9826,4330,272,187.148,57.307,13.301,36.000,36.580,41.174,4.594,295.1,542.1,291.5
2023-09-22T09:00:08,2420,42.8014,5.9826,4330,272,187.091,57.290,13.301,36.003,36.583,41.177,4.593,295.0,542.0,291.5
2023-09-22T09:03:07,2420,42.8014,5.9826,4330,272,187.228,57.332,13.302,35.994,36.574,41.166,4.592,295.0,542.1,291.5
2023-09-22T09:06:07,2420,42.8014,5.9826,4330,272,187.199,57.321,13.300,35.996,36.577,41.170,4.593,295.0,542.0,291.6
2023-09-22T09:09:07,2420,42.8014,5.9826,4330,272,186.925,57.239,13.302,36.014,36.594,41.180,4.587,295.1,542.0,291.5
2023-09-22T09:12:07,2420,42.8014,5.9826,4330,272,187.073,57.284,13.301,36.004,36.585,41.170,4.586,295.1,542.1,291.5
2023-09-22T09:15:07,2420,42.8014,5.9826,4330,272,187.148,57.311,13.304,35.998,36.578,41.170,4.592,295.0,542.0,291.4
2023-09-22T09:18:07,2420,42.8014,5.9826,4330,272,187.094,57.293,13.303,36.002,36.582,41.174,4.592,295.1,542.1,291.5
2023-09-22T09:21:07,2420,42.8014,5.9826,4330,272,187.019,57.268,13.302,36.008,36.588,41.178,4.590,295.1,542.0,291.5
2023-09-22T09:24:07,2420,42.8014,5.9826,4330,272,187.125,57.303,13.303,36.000,36.580,41.172,4.592,295.0,542.0,291.4
2023-09-22T09:27:07,2420,42.8014,5.9826,4330,272,187.184,57.318,13.301,35.997,36.577,41.169,4.592,295.1,542.1,291.5
2023-09-22T09:30:08,2420,42.8014,5.9826,4330,272,187.101,57.293,13.302,36.002,36.583,41.171,4.589,295.0,542.1,291.5
2023-09-22T09:33:07,2420,42.8014,5.9826,4330,272,187.063,57.286,13.305,36.004,36.584,41.180,4.596,295.0,542.1,291.4
2023-09-22T09:36:07,2420,42.8014,5.9826,4330,272,187.223,57.329,13.301,35.995,36.575,41.171,4.596,295.1,542.0,291.5
2023-09-22T09:39:07,2420,42.8014,5.9826,4330,272,187.282,57.351,13.303,35.990,36.570,41.164,4.594,295.1,542.0,291.4
2023-09-22T09:42:07,2420,42.8014,5.9826,4330,272,187.260,57.341,13.301,35.992,36.572,41.167,4.595,295.0,542.1,291.5
2023-09-22T09:45:07,2420,42.8014,5.9826,4330,272,187.214,57.325,13.300,35.996,36.576,41.169,4.593,295.0,542.0,291.6
2023-09-22T09:48:07,2420,42.8014,5.9826,4330,272,187.127,57.299,13.300,36.002,36.582,41.175,4.593,295.0,542.1,291.5
2023-09-22T09:51:07,2420,42.8014,5.9826,4330,272,187.254,57.337,13.300,35.994,36.574,41.165,4.591,295.0,542.1,291.6
2023-09-22T09:54:08,2420,42.8014,5.9826,4330,272,187.191,57.318,13.300,35.997,36.578,41.172,4.594,295.0,542.0,291.6
2023-09-22T09:57:08,2420,42.8014,5.9826,4330,272,187.233,57.335,13.303,35.993,36.574,41.165,4.591,295.1,542.0,291.5
2023-09-22T10:00:08,2420,42.8014,5.9826,4330,272,187.342,57.370,13.304,35.986,36.566,41.162,4.596,295.1,542.0,291.4